TimeMST,TemperatureF,Dew PointF,Humidity,Sea Level PressureIn,VisibilityMPH,Wind Direction,Wind SpeedMPH,Gust SpeedMPH,PrecipitationIn,Events,Conditions,WindDirDegrees,DateUTC
12:57 AM,10.9,7.0,84,30.40,10.0,Calm,Calm,-,N/A,,Clear,0,2013-01-20 07:57:00
1:57 AM,9.0,3.9,80,30.40,10.0,Calm,Calm,-,N/A,,Clear,0,2013-01-20 08:57:00
2:57 AM,8.1,3.0,80,30.40,10.0,Calm,Calm,-,N/A,,Clear,0,2013-01-20 09:57:00
3:57 AM,6.1,1.9,83,30.40,10.0,Calm,Calm,-,N/A,,Clear,0,2013-01-20 10:57:00
4:57 AM,5.0,1.0,84,30.39,10.0,Calm,Calm,-,N/A,,Clear,0,2013-01-20 11:57:00
5:57 AM,3.9,-0.0,84,30.44,10.0,Calm,Calm,-,N/A,,Clear,0,2013-01-20 12:57:00
6:57 AM,3.9,-0.9,80,30.47,10.0,Calm,Calm,-,N/A,,Clear,0,2013-01-20 13:57:00
7:57 AM,3.9,-0.9,80,30.48,10.0,Calm,Calm,-,N/A,,Clear,0,2013-01-20 14:57:00
8:57 AM,14.0,8.1,77,30.45,10.0,Calm,Calm,-,N/A,,Clear,0,2013-01-20 15:57:00
9:57 AM,28.9,12.9,51,30.40,10.0,Calm,Calm,-,N/A,,Clear,0,2013-01-20 16:57:00
10:57 AM,37.0,16.0,42,30.36,10.0,NNE,4.6,-,N/A,,Clear,30,2013-01-20 17:57:00
11:57 AM,42.1,15.1,34,30.32,10.0,NNE,4.6,-,N/A,,Clear,20,2013-01-20 18:57:00
12:57 PM,44.1,17.1,34,30.28,10.0,NNE,6.9,-,N/A,,Clear,30,2013-01-20 19:57:00
1:57 PM,45.0,18.0,34,30.27,10.0,NE,8.1,-,N/A,,Clear,40,2013-01-20 20:57:00
2:57 PM,43.0,19.0,38,30.27,10.0,NE,11.5,-,N/A,,Clear,40,2013-01-20 21:57:00
3:57 PM,42.1,18.0,38,30.29,10.0,ENE,8.1,-,N/A,,Clear,60,2013-01-20 22:57:00
4:57 PM,39.9,17.1,40,30.31,10.0,ENE,6.9,-,N/A,,Clear,70,2013-01-20 23:57:00
5:57 PM,33.1,17.1,52,30.36,10.0,NE,5.8,-,N/A,,Clear,40,2013-01-21 00:57:00
6:57 PM,26.1,16.0,66,30.42,10.0,Calm,Calm,-,N/A,,Clear,0,2013-01-21 01:57:00
7:57 PM,23.0,15.1,72,30.43,10.0,Calm,Calm,-,N/A,,Clear,0,2013-01-21 02:57:00
8:57 PM,19.9,12.9,74,30.40,10.0,Calm,Calm,-,N/A,,Clear,0,2013-01-21 03:57:00
9:57 PM,16.0,10.9,81,30.33,10.0,Calm,Calm,-,N/A,,Clear,0,2013-01-21 04:57:00
10:57 PM,15.1,10.9,84,30.31,10.0,Calm,Calm,-,N/A,,Clear,0,2013-01-21 05:57:00
11:57 PM,15.1,10.0,80,30.28,10.0,Calm,Calm,-,N/A,,Clear,0,2013-01-21 06:57:00